Home   Weather   Kraków   Past weeks

Flag for Poland Past Weather in Kraków, Poland — Yesterday and Last 2 Weeks

28 °F

Ice fog.

Feels Like: 28 °F
Forecast: 45 / 50 °F
Wind: 1 mph from North

Location: Krakow Airport

Current Time: Oct 28, 2016 at 8:39:43 AM

Latest Report: Oct 28, 2016 at 8:00 AM

Visibility: 0 mi

Pressure: 30.48 "Hg

Humidity: 93%

Dew Point: 27 °F

Location of KrakówLocation

Past Weather in Kraków — Graph


Kraków Temperature Yesterday

Maximum temperature yesterday: 46 °F (at 11:30 AM)
Minimum temperature yesterday: 32 °F (at 11:30 PM)
Average temperature yesterday: 42 °F

High & Low Weather Summary for the Past Weeks

High61 °F (Oct 24, 2:00 PM)100% (Oct 14, 6:00 AM)30.54 "Hg (Oct 14, 6:00 AM)
Low28 °F (Oct 28, 5:00 AM)51% (Oct 23, 3:30 PM)29.92 "Hg (Oct 21, 2:00 PM)
Average45 °F87%30.16 "Hg
* Reported Oct 13 7:00 AM — Oct 28 7:30 AM, Kraków, Weather by CustomWeather, © 2016

Note: Actual official high and low records may vary slightly from our data, if they occured in-between our weather recording intervals... More about our weather records


Kraków Weather History for the Previous 24 Hours

Scroll right to see more
Time TempWeatherWind HumidityBarometerVisibility
7:30 AM
Fri, Oct 28
28 °FIce fog.2 mph93%30.51 "Hg0 mi
7:00 AM28 °FIce fog.2 mph93%30.51 "Hg1 mi
6:30 AM28 °FIce fog.2 mph93%30.51 "Hg1 mi
6:00 AM28 °FIce fog.3 mph93%30.51 "Hg1 mi
5:30 AM30 °FIce fog.1 mph93%30.51 "Hg2 mi
5:00 AM28 °FIce fog.1 mph100%30.51 "Hg1 mi
4:30 AM30 °FIce fog.1 mph93%30.51 "Hg2 mi
4:00 AM30 °FIce fog.2 mph93%30.51 "Hg1 mi
3:30 AM30 °FIce fog.2 mph93%30.51 "Hg1 mi
3:00 AM30 °FIce fog.3 mph93%30.51 "Hg1 mi
2:30 AM30 °FIce fog.1 mph93%30.51 "Hg2 mi
2:00 AM30 °FIce fog.1 mph93%30.51 "Hg1 mi
1:30 AM30 °FIce fog.2 mph100%30.51 "Hg1 mi
1:00 AM30 °FIce fog.1 mph100%30.51 "Hg2 mi
12:30 AM32 °FIce fog.No wind93%30.54 "Hg2 mi
12:00 AM32 °FIce fog.1 mph93%30.54 "Hg2 mi
11:30 PM
Thu, Oct 27
32 °FIce fog.1 mph100%30.54 "Hg2 mi
11:00 PM34 °FFog.2 mph93%30.54 "Hg3 mi
10:30 PM34 °FClear.1 mph93%30.54 "Hg4 mi
10:00 PM34 °FClear.1 mph93%30.51 "Hg5 mi
9:30 PM36 °FClear.1 mph93%30.51 "Hg5 mi
9:00 PM37 °FClear.2 mph87%30.51 "Hg5 mi
8:30 PM37 °FPassing clouds.2 mph87%30.51 "HgN/A
8:00 PM37 °FPassing clouds.1 mph87%30.51 "HgN/A
7:30 PM39 °FPassing clouds.2 mph81%30.51 "Hg4 mi
7:00 PM43 °FPassing clouds.5 mph76%30.48 "HgN/A
6:30 PM45 °FPassing clouds.3 mph66%30.48 "HgN/A
6:00 PM43 °FPassing clouds.6 mph76%30.48 "HgN/A
5:30 PM45 °FPassing clouds.2 mph66%30.48 "HgN/A
5:00 PM45 °FPartly sunny.5 mph66%30.48 "HgN/A
4:30 PM45 °FPartly sunny.5 mph66%30.45 "HgN/A
4:00 PM46 °FPartly sunny.3 mph57%30.45 "HgN/A
3:30 PM46 °FPartly sunny.1 mph62%30.45 "HgN/A
3:00 PM46 °FPartly sunny.2 mph53%30.45 "HgN/A
2:30 PM46 °FPartly sunny.2 mph57%30.45 "HgN/A
2:00 PM46 °FPartly sunny.3 mph53%30.45 "HgN/A
1:30 PM46 °FPartly sunny.5 mph53%30.45 "HgN/A
1:00 PM46 °FPartly sunny.5 mph53%30.45 "HgN/A
12:30 PM46 °FPartly sunny.5 mph53%30.45 "HgN/A
12:00 PM46 °FPartly sunny.5 mph57%30.45 "HgN/A
11:30 AM46 °FPartly sunny.2 mph71%30.45 "HgN/A
11:00 AM45 °FPartly sunny.2 mph76%30.45 "HgN/A
10:30 AM43 °FPartly sunny.2 mph81%30.45 "HgN/A
10:00 AM43 °FPartly sunny.5 mph81%30.45 "HgN/A
9:30 AM43 °FPartly sunny.6 mph81%30.45 "HgN/A
9:00 AM41 °FPartly sunny.6 mph87%30.45 "HgN/A
8:30 AM41 °FPartly sunny.3 mph87%30.45 "HgN/A
8:00 AM41 °FPartly sunny.3 mph87%30.42 "HgN/A
Weather by CustomWeather, © 2016

See weather overviewHow to use our weather pages